Hourly Weather Alibag

Today, 5 December, Saturday

Time Temperature Precipitation Wind Pressure Humidity
00:00 +24°C° 0 mm 1 mps 758 mmHg 56%
01:00 +24°C° 0 mm 1 mps 758 mmHg 55%
02:00 +24°C° 0 mm 2 mps 758 mmHg 54%
03:00 +24°C° 0 mm 2 mps 757 mmHg 53%
04:00 +23°C° 0 mm 2 mps 757 mmHg 52%
05:00 +23°C° 0 mm 2 mps 757 mmHg 51%
06:00 +24°C° 0 mm 2 mps 758 mmHg 48%
07:00 +25°C° 0 mm 2 mps 759 mmHg 45%
08:00 +26°C° 0 mm 3 mps 759 mmHg 43%
09:00 +29°C° 0 mm 2 mps 759 mmHg 38%
10:00 +31°C° 0 mm 2 mps 759 mmHg 34%
11:00 +34°C° 0 mm 1 mps 759 mmHg 30%
12:00 +35°C° 0 mm 2 mps 758 mmHg 29%
13:00 +36°C° 0 mm 2 mps 757 mmHg 29%
14:00 +36°C° 0 mm 2 mps 757 mmHg 28%
15:00 +34°C° 0 mm 2 mps 756 mmHg 35%
16:00 +31°C° 0 mm 2 mps 756 mmHg 42%
17:00 +29°C° 0 mm 2 mps 756 mmHg 49%
18:00 +28°C° 0 mm 2 mps 757 mmHg 51%
19:00 +27°C° 0 mm 2 mps 758 mmHg 54%
20:00 +26°C° 0 mm 2 mps 758 mmHg 56%
21:00 +25°C° 0 mm 2 mps 758 mmHg 56%
22:00 +25°C° 0 mm 2 mps 758 mmHg 56%
23:00 +25°C° 0 mm 3 mps 759 mmHg 56%

Tomorrow, 6 December, Sunday

Time Temperature Precipitation Wind Pressure Humidity
00:00 +25°C° 0 mm 2 mps 758 mmHg 52%
01:00 +24°C° 0 mm 2 mps 758 mmHg 47%
02:00 +24°C° 0 mm 2 mps 758 mmHg 43%
03:00 +24°C° 0 mm 2 mps 758 mmHg 42%
04:00 +22°C° 0 mm 3 mps 758 mmHg 41%
05:00 +22°C° 0 mm 3 mps 758 mmHg 40%
06:00 +24°C° 0 mm 3 mps 759 mmHg 40%
07:00 +25°C° 0 mm 3 mps 759 mmHg 40%
08:00 +26°C° 0 mm 4 mps 760 mmHg 40%
09:00 +28°C° 0 mm 3 mps 760 mmHg 36%
10:00 +31°C° 0 mm 3 mps 760 mmHg 32%
11:00 +34°C° 0 mm 3 mps 760 mmHg 28%
12:00 +35°C° 0 mm 3 mps 759 mmHg 27%
13:00 +36°C° 0 mm 3 mps 758 mmHg 26%
14:00 +37°C° 0 mm 3 mps 758 mmHg 25%
15:00 +35°C° 0 mm 3 mps 758 mmHg 30%
16:00 +34°C° 0 mm 3 mps 757 mmHg 35%
17:00 +31°C° 0 mm 3 mps 757 mmHg 40%
18:00 +29°C° 0 mm 3 mps 758 mmHg 44%
19:00 +28°C° 0 mm 3 mps 759 mmHg 49%
20:00 +26°C° 0 mm 4 mps 759 mmHg 53%
21:00 +26°C° 0 mm 3 mps 759 mmHg 50%
22:00 +25°C° 0 mm 3 mps 759 mmHg 47%
23:00 +25°C° 0 mm 3 mps 759 mmHg 44%

Day after tomorrow, 7 December, Monday

Time Temperature Precipitation Wind Pressure Humidity
00:00 +25°C° 0 mm 3 mps 759 mmHg 43%
01:00 +24°C° 0 mm 3 mps 759 mmHg 41%
02:00 +24°C° 0 mm 3 mps 759 mmHg 40%
03:00 +23°C° 0 mm 4 mps 759 mmHg 41%
04:00 +23°C° 0 mm 4 mps 759 mmHg 41%
05:00 +22°C° 0 mm 4 mps 759 mmHg 42%
06:00 +23°C° 0 mm 4 mps 759 mmHg 43%
07:00 +25°C° 0 mm 4 mps 760 mmHg 43%
08:00 +25°C° 0 mm 4 mps 761 mmHg 44%
09:00 +28°C° 0 mm 4 mps 761 mmHg 40%
10:00 +31°C° 0 mm 3 mps 761 mmHg 37%
11:00 +34°C° 0 mm 3 mps 761 mmHg 33%
12:00 +35°C° 0 mm 3 mps 760 mmHg 31%
13:00 +36°C° 0 mm 3 mps 759 mmHg 29%
14:00 +37°C° 0 mm 3 mps 758 mmHg 28%
15:00 +36°C° 0 mm 3 mps 758 mmHg 32%
16:00 +34°C° 0 mm 3 mps 758 mmHg 36%
17:00 +33°C° 0 mm 3 mps 758 mmHg 40%
18:00 +30°C° 0 mm 3 mps 759 mmHg 43%
19:00 +29°C° 0 mm 3 mps 760 mmHg 46%
20:00 +27°C° 0 mm 3 mps 760 mmHg 48%
21:00 +27°C° 0 mm 3 mps 760 mmHg 45%
22:00 +26°C° 0 mm 3 mps 760 mmHg 42%
23:00 +25°C° 0 mm 3 mps 760 mmHg 39%

8 December, Tuesday

Time Temperature Precipitation Wind Pressure Humidity
00:00 +25°C° 0 mm 3 mps 760 mmHg 40%
01:00 +25°C° 0 mm 4 mps 759 mmHg 40%
02:00 +23°C° 0 mm 4 mps 759 mmHg 41%
03:00 +23°C° 0 mm 4 mps 759 mmHg 42%
04:00 +23°C° 0 mm 4 mps 759 mmHg 44%
05:00 +23°C° 0 mm 4 mps 759 mmHg 45%
06:00 +23°C° 0 mm 4 mps 760 mmHg 45%
07:00 +25°C° 0 mm 4 mps 760 mmHg 46%
08:00 +25°C° 0 mm 3 mps 761 mmHg 46%
09:00 +28°C° 0 mm 3 mps 761 mmHg 41%
10:00 +31°C° 0 mm 3 mps 761 mmHg 35%
11:00 +35°C° 0 mm 3 mps 761 mmHg 29%
12:00 +36°C° 0 mm 2 mps 760 mmHg 27%
13:00 +36°C° 0 mm 2 mps 759 mmHg 26%
14:00 +37°C° 0 mm 2 mps 759 mmHg 24%
15:00 +35°C° 0 mm 2 mps 759 mmHg 30%
16:00 +32°C° 0 mm 2 mps 759 mmHg 36%
17:00 +31°C° 0 mm 2 mps 758 mmHg 42%
18:00 +29°C° 0 mm 2 mps 759 mmHg 46%
19:00 +28°C° 0 mm 2 mps 759 mmHg 50%
20:00 +26°C° 0 mm 2 mps 760 mmHg 54%
21:00 +26°C° 0 mm 3 mps 760 mmHg 55%
22:00 +26°C° 0 mm 3 mps 760 mmHg 57%
23:00 +25°C° 0 mm 3 mps 760 mmHg 59%

9 December, Wednesday

Time Temperature Precipitation Wind Pressure Humidity
00:00 +25°C° 0 mm 3 mps 760 mmHg 53%
01:00 +25°C° 0 mm 3 mps 759 mmHg 48%
02:00 +25°C° 0 mm 2 mps 759 mmHg 43%
03:00 +25°C° 0 mm 3 mps 759 mmHg 42%
04:00 +25°C° 0 mm 3 mps 759 mmHg 41%
05:00 +25°C° 0 mm 3 mps 759 mmHg 41%
06:00 +25°C° 0 mm 3 mps 759 mmHg 41%
07:00 +26°C° 0 mm 3 mps 760 mmHg 42%
08:00 +26°C° 0 mm 3 mps 760 mmHg 43%
09:00 +29°C° 0 mm 2 mps 760 mmHg 40%
10:00 +31°C° 0 mm 2 mps 760 mmHg 37%
11:00 +33°C° 0 mm 1 mps 760 mmHg 33%
12:00 +33°C° 0 mm 1 mps 759 mmHg 35%
13:00 +33°C° 0 mm 1 mps 759 mmHg 37%
14:00 +32°C° 0 mm 1 mps 758 mmHg 39%
15:00 +31°C° 0 mm 1 mps 758 mmHg 43%
16:00 +30°C° 0 mm 2 mps 758 mmHg 46%
17:00 +29°C° 0 mm 3 mps 758 mmHg 50%
18:00 +28°C° 0 mm 2 mps 758 mmHg 51%
19:00 +28°C° 0 mm 2 mps 758 mmHg 51%
20:00 +28°C° 0 mm 1 mps 759 mmHg 52%
21:00 +27°C° 0 mm 2 mps 759 mmHg 54%
22:00 +27°C° 0 mm 2 mps 759 mmHg 55%
23:00 +26°C° 0 mm 2 mps 758 mmHg 57%

10 December, Thursday

Time Temperature Precipitation Wind Pressure Humidity
00:00 +26°C° 0 mm 2 mps 758 mmHg 55%
01:00 +26°C° 0 mm 2 mps 758 mmHg 54%
02:00 +26°C° 0 mm 2 mps 757 mmHg 52%
03:00 +26°C° 0 mm 2 mps 757 mmHg 50%
04:00 +26°C° 0 mm 2 mps 758 mmHg 48%
05:00 +26°C° 0 mm 2 mps 758 mmHg 45%
06:00 +26°C° 0 mm 2 mps 758 mmHg 44%
07:00 +27°C° 0 mm 2 mps 759 mmHg 42%
08:00 +27°C° 0 mm 2 mps 759 mmHg 41%
09:00 +30°C° 0 mm 2 mps 759 mmHg 37%
10:00 +32°C° 0 mm 1 mps 759 mmHg 34%
11:00 +34°C° 0 mm 1 mps 759 mmHg 30%
12:00 +34°C° 0 mm 1 mps 759 mmHg 30%
13:00 +35°C° 0 mm 2 mps 758 mmHg 29%
14:00 +36°C° 0 mm 2 mps 757 mmHg 29%
15:00 +34°C° 0 mm 2 mps 757 mmHg 36%
16:00 +31°C° 0 mm 2 mps 757 mmHg 44%
17:00 +29°C° 0 mm 2 mps 757 mmHg 52%
18:00 +29°C° 0 mm 2 mps 757 mmHg 54%
19:00 +28°C° 0 mm 1 mps 758 mmHg 55%
20:00 +27°C° 0 mm 1 mps 758 mmHg 57%
21:00 +27°C° 0 mm 1 mps 758 mmHg 56%
22:00 +26°C° 0 mm 1 mps 758 mmHg 55%
23:00 +26°C° 0 mm 1 mps 758 mmHg 54%
Show more